Time,TemperatureF,DewpointF,PressureIn,WindDirection,WindDirectionDegrees,WindSpeedMPH,WindSpeedGustMPH,Humidity,HourlyPrecipIn,Conditions,Clouds,dailyrainin,SoftwareType,DateUTC
2013-06-10 00:06:00,77.5,74.3,29.93,East,90,2.2,-999.0,90,-99.99,,,0.00,Acu-Link.com,2013-06-10 04:06:00,
2013-06-10 00:21:00,77.5,74.7,29.93,SE,135,0.0,-999.0,91,-99.99,,,0.00,Acu-Link.com,2013-06-10 04:21:00,
2013-06-10 00:37:00,77.4,74.6,29.93,SSE,157,0.0,-999.0,91,-99.99,,,0.00,Acu-Link.com,2013-06-10 04:37:00,
2013-06-10 00:53:00,77.2,74.4,29.93,ESE,112,0.0,-999.0,91,-99.99,,,0.00,Acu-Link.com,2013-06-10 04:53:00,
2013-06-10 01:09:00,77.0,74.5,29.93,SSE,157,2.7,-999.0,92,-99.99,,,0.00,Acu-Link.com,2013-06-10 05:09:00,
2013-06-10 01:24:00,77.0,74.5,29.93,East,90,0.0,-999.0,92,-99.99,,,0.00,Acu-Link.com,2013-06-10 05:24:00,
2013-06-10 01:39:00,77.0,74.5,29.92,South,180,0.0,-999.0,92,-99.99,,,0.00,Acu-Link.com,2013-06-10 05:39:00,
2013-06-10 01:55:00,77.0,74.5,29.92,South,180,0.0,-999.0,92,-99.99,,,0.00,Acu-Link.com,2013-06-10 05:55:00,
2013-06-10 02:10:00,76.6,74.1,29.92,SW,225,0.0,-999.0,92,-99.99,,,0.00,Acu-Link.com,2013-06-10 06:10:00,
2013-06-10 02:26:00,76.6,74.1,29.92,SSW,202,0.0,-999.0,92,-99.99,,,0.00,Acu-Link.com,2013-06-10 06:26:00,
2013-06-10 02:56:00,76.1,73.6,29.91,SSW,202,0.0,-999.0,92,-99.99,,,0.00,Acu-Link.com,2013-06-10 06:56:00,
2013-06-10 03:14:00,75.9,73.7,29.91,SSE,157,0.0,-999.0,93,-99.99,,,0.00,Acu-Link.com,2013-06-10 07:14:00,
2013-06-10 03:30:00,75.9,73.7,29.91,SSE,157,0.0,-999.0,93,-99.99,,,0.00,Acu-Link.com,2013-06-10 07:30:00,
2013-06-10 03:46:00,75.9,73.7,29.91,South,180,0.0,-999.0,93,-99.99,,,0.00,Acu-Link.com,2013-06-10 07:46:00,
2013-06-10 04:02:00,75.7,73.5,29.91,ESE,112,0.0,-999.0,93,-99.99,,,0.00,Acu-Link.com,2013-06-10 08:02:00,
2013-06-10 04:17:00,75.6,73.4,29.92,ESE,112,0.0,-999.0,93,-99.99,,,0.00,Acu-Link.com,2013-06-10 08:17:00,
2013-06-10 04:32:00,75.6,73.4,29.91,South,180,0.0,-999.0,93,-99.99,,,0.00,Acu-Link.com,2013-06-10 08:32:00,
2013-06-10 04:48:00,75.6,73.4,29.91,SSW,202,0.0,-999.0,93,-99.99,,,0.00,Acu-Link.com,2013-06-10 08:48:00,
2013-06-10 05:03:00,75.6,73.4,29.91,ESE,112,0.0,-999.0,93,-99.99,,,0.00,Acu-Link.com,2013-06-10 09:03:00,
2013-06-10 05:19:00,75.4,73.2,29.91,ESE,112,0.0,-999.0,93,-99.99,,,0.00,Acu-Link.com,2013-06-10 09:19:00,
2013-06-10 05:35:00,75.2,73.0,29.91,ESE,112,0.0,-999.0,93,-99.99,,,0.00,Acu-Link.com,2013-06-10 09:35:00,
2013-06-10 05:51:00,75.4,73.2,29.90,SE,135,2.2,-999.0,93,-99.99,,,0.00,Acu-Link.com,2013-06-10 09:51:00,
2013-06-10 06:06:00,75.4,72.9,29.91,SSE,157,0.0,-999.0,92,-99.99,,,0.00,Acu-Link.com,2013-06-10 10:06:00,
2013-06-10 06:22:00,75.4,72.9,29.90,SE,135,0.0,-999.0,92,-99.99,,,0.00,Acu-Link.com,2013-06-10 10:22:00,
2013-06-10 06:37:00,75.6,73.1,29.92,SE,135,0.0,-999.0,92,-99.99,,,0.00,Acu-Link.com,2013-06-10 10:37:00,
2013-06-10 06:52:00,75.4,72.9,29.91,SE,135,0.0,-999.0,92,-99.99,,,0.00,Acu-Link.com,2013-06-10 10:52:00,
2013-06-10 07:08:00,75.4,72.9,29.91,ENE,67,0.0,-999.0,92,-99.99,,,0.00,Acu-Link.com,2013-06-10 11:08:00,
2013-06-10 07:23:00,75.7,73.5,29.93,ENE,67,0.0,-999.0,93,-99.99,,,0.00,Acu-Link.com,2013-06-10 11:23:00,
2013-06-10 07:38:00,76.5,74.0,29.92,SE,135,0.0,-999.0,92,-99.99,,,0.00,Acu-Link.com,2013-06-10 11:38:00,
2013-06-10 07:55:00,79.2,75.0,29.92,SE,135,1.7,-999.0,87,-99.99,,,0.00,Acu-Link.com,2013-06-10 11:55:00,
2013-06-10 08:11:00,82.8,76.4,29.94,East,90,3.7,-999.0,81,-99.99,,,0.00,Acu-Link.com,2013-06-10 12:11:00,
2013-06-10 08:26:00,83.8,76.6,29.93,South,180,3.7,-999.0,79,-99.99,,,0.00,Acu-Link.com,2013-06-10 12:26:00,
2013-06-10 08:56:00,83.1,76.3,29.94,SSE,157,4.7,-999.0,80,-99.99,,,0.00,Acu-Link.com,2013-06-10 12:56:00,
2013-06-10 09:11:00,82.6,75.8,29.94,ESE,112,2.2,-999.0,80,-99.99,,,0.00,Acu-Link.com,2013-06-10 13:11:00,
2013-06-10 09:27:00,82.6,75.8,29.94,South,180,4.2,-999.0,80,-99.99,,,0.00,Acu-Link.com,2013-06-10 13:27:00,
2013-06-10 09:42:00,82.9,76.1,29.94,SSE,157,3.2,-999.0,80,-99.99,,,0.00,Acu-Link.com,2013-06-10 13:42:00,
2013-06-10 09:57:00,82.9,76.1,29.93,South,180,2.2,-999.0,80,-99.99,,,0.00,Acu-Link.com,2013-06-10 13:57:00,
2013-06-10 10:12:00,83.8,75.8,29.95,SSE,157,5.8,-999.0,77,-99.99,,,0.00,Acu-Link.com,2013-06-10 14:12:00,
2013-06-10 10:28:00,85.1,76.7,29.93,SSE,157,5.3,-999.0,76,-99.99,,,0.00,Acu-Link.com,2013-06-10 14:28:00,
2013-06-10 10:43:00,83.8,76.2,29.93,NE,45,4.7,-999.0,78,-99.99,,,0.00,Acu-Link.com,2013-06-10 14:43:00,
2013-06-10 10:58:00,85.1,76.7,29.94,SSE,157,3.2,-999.0,76,-99.99,,,0.00,Acu-Link.com,2013-06-10 14:58:00,
2013-06-10 11:14:00,85.3,76.9,29.94,SSE,157,7.3,-999.0,76,-99.99,,,0.00,Acu-Link.com,2013-06-10 15:14:00,
2013-06-10 11:29:00,84.4,77.2,29.94,SE,135,5.3,-999.0,79,-99.99,,,0.00,Acu-Link.com,2013-06-10 15:29:00,
2013-06-10 11:44:00,83.1,77.7,29.94,SE,135,5.8,-999.0,84,-99.99,,,0.03,Acu-Link.com,2013-06-10 15:44:00,
2013-06-10 11:59:00,85.8,78.1,29.92,ENE,67,5.8,-999.0,78,-99.99,,,0.04,Acu-Link.com,2013-06-10 15:59:00,
2013-06-10 12:14:00,87.3,78.4,29.92,SSE,157,9.9,-999.0,75,-99.99,,,0.04,Acu-Link.com,2013-06-10 16:14:00,
2013-06-10 12:29:00,86.9,77.6,29.92,ESE,112,5.3,-999.0,74,-99.99,,,0.04,Acu-Link.com,2013-06-10 16:29:00,
2013-06-10 12:44:00,85.8,76.5,29.93,ENE,67,3.7,-999.0,74,-99.99,,,0.04,Acu-Link.com,2013-06-10 16:44:00,
2013-06-10 13:00:00,86.9,77.2,29.91,ESE,112,8.9,-999.0,73,-99.99,,,0.04,Acu-Link.com,2013-06-10 17:00:00,
2013-06-10 13:15:00,85.3,76.9,29.92,SE,135,8.3,-999.0,76,-99.99,,,0.04,Acu-Link.com,2013-06-10 17:15:00,
2013-06-10 13:30:00,85.8,76.9,29.92,South,180,4.7,-999.0,75,-99.99,,,0.04,Acu-Link.com,2013-06-10 17:30:00,
2013-06-10 13:45:00,85.5,76.2,29.90,SE,135,6.8,-999.0,74,-99.99,,,0.04,Acu-Link.com,2013-06-10 17:45:00,
2013-06-10 14:00:00,84.7,75.9,29.91,SSE,157,6.8,-999.0,75,-99.99,,,0.04,Acu-Link.com,2013-06-10 18:00:00,
2013-06-10 14:16:00,85.8,75.7,29.91,South,180,10.4,-999.0,72,-99.99,,,0.04,Acu-Link.com,2013-06-10 18:16:00,
2013-06-10 14:46:00,87.6,76.6,29.90,SSE,157,6.3,-999.0,70,-99.99,,,0.04,Acu-Link.com,2013-06-10 18:46:00,
2013-06-10 15:01:00,88.3,77.2,29.89,East,90,5.3,-999.0,70,-99.99,,,0.04,Acu-Link.com,2013-06-10 19:01:00,
2013-06-10 15:16:00,87.1,76.9,29.89,South,180,6.3,-999.0,72,-99.99,,,0.04,Acu-Link.com,2013-06-10 19:16:00,
2013-06-10 15:31:00,88.0,77.8,29.89,East,90,7.3,-999.0,72,-99.99,,,0.04,Acu-Link.com,2013-06-10 19:31:00,
2013-06-10 15:47:00,87.6,77.0,29.89,East,90,7.3,-999.0,71,-99.99,,,0.04,Acu-Link.com,2013-06-10 19:47:00,
2013-06-10 16:02:00,87.8,76.8,29.89,East,90,3.7,-999.0,70,-99.99,,,0.04,Acu-Link.com,2013-06-10 20:02:00,
2013-06-10 16:17:00,85.5,75.0,29.88,SE,135,7.3,-999.0,71,-99.99,,,0.04,Acu-Link.com,2013-06-10 20:17:00,
2013-06-10 16:32:00,84.0,75.2,29.87,SE,135,4.2,-999.0,75,-99.99,,,0.04,Acu-Link.com,2013-06-10 20:32:00,
2013-06-10 16:47:00,82.9,75.3,29.88,East,90,2.7,-999.0,78,-99.99,,,0.04,Acu-Link.com,2013-06-10 20:47:00,
2013-06-10 17:02:00,82.8,76.7,29.87,SSE,157,7.3,-999.0,82,-99.99,,,0.04,Acu-Link.com,2013-06-10 21:02:00,
2013-06-10 17:18:00,82.2,76.5,29.87,ESE,112,7.3,-999.0,83,-99.99,,,0.04,Acu-Link.com,2013-06-10 21:18:00,
2013-06-10 17:33:00,81.9,76.2,29.86,ESE,112,4.2,-999.0,83,-99.99,,,0.04,Acu-Link.com,2013-06-10 21:33:00,
2013-06-10 17:48:00,81.9,76.6,29.87,SE,135,3.7,-999.0,84,-99.99,,,0.04,Acu-Link.com,2013-06-10 21:48:00,
2013-06-10 18:03:00,81.7,76.4,29.87,SSE,157,4.2,-999.0,84,-99.99,,,0.04,Acu-Link.com,2013-06-10 22:03:00,
2013-06-10 18:19:00,81.5,76.5,29.86,SE,135,5.3,-999.0,85,-99.99,,,0.04,Acu-Link.com,2013-06-10 22:19:00,
2013-06-10 18:34:00,81.5,76.5,29.85,SSE,157,6.3,-999.0,85,-99.99,,,0.04,Acu-Link.com,2013-06-10 22:34:00,
2013-06-10 18:49:00,81.3,76.3,29.88,SE,135,5.3,-999.0,85,-99.99,,,0.04,Acu-Link.com,2013-06-10 22:49:00,
2013-06-10 19:04:00,81.1,76.1,29.87,SSW,202,3.7,-999.0,85,-99.99,,,0.04,Acu-Link.com,2013-06-10 23:04:00,
2013-06-10 19:19:00,81.0,76.1,29.87,South,180,3.7,-999.0,85,-99.99,,,0.04,Acu-Link.com,2013-06-10 23:19:00,
2013-06-10 19:34:00,81.0,76.4,29.88,SE,135,2.2,-999.0,86,-99.99,,,0.04,Acu-Link.com,2013-06-10 23:34:00,
2013-06-10 19:49:00,81.0,76.4,29.87,SSE,157,3.2,-999.0,86,-99.99,,,0.04,Acu-Link.com,2013-06-10 23:49:00,
2013-06-10 20:05:00,80.6,76.0,29.88,SSE,157,4.2,-999.0,86,-99.99,,,0.04,Acu-Link.com,2013-06-11 00:05:00,
2013-06-10 20:20:00,80.4,76.2,29.87,South,180,1.7,-999.0,87,-99.99,,,0.04,Acu-Link.com,2013-06-11 00:20:00,
2013-06-10 20:35:00,80.1,75.9,29.88,SE,135,2.7,-999.0,87,-99.99,,,0.04,Acu-Link.com,2013-06-11 00:35:00,
2013-06-10 20:51:00,79.9,76.0,29.88,SSE,157,2.7,-999.0,88,-99.99,,,0.04,Acu-Link.com,2013-06-11 00:51:00,
2013-06-10 21:06:00,79.7,75.8,29.89,East,90,0.0,-999.0,88,-99.99,,,0.04,Acu-Link.com,2013-06-11 01:06:00,
2013-06-10 21:22:00,79.3,75.8,29.90,ENE,67,2.2,-999.0,89,-99.99,,,0.04,Acu-Link.com,2013-06-11 01:22:00,
2013-06-10 21:37:00,79.3,75.8,29.90,ENE,67,1.7,-999.0,89,-99.99,,,0.04,Acu-Link.com,2013-06-11 01:37:00,
2013-06-10 21:52:00,79.0,75.5,29.91,East,90,2.7,-999.0,89,-99.99,,,0.04,Acu-Link.com,2013-06-11 01:52:00,
2013-06-10 22:08:00,78.8,75.3,29.90,East,90,3.2,-999.0,89,-99.99,,,0.04,Acu-Link.com,2013-06-11 02:08:00,
2013-06-10 22:23:00,78.8,75.6,29.90,ESE,112,4.2,-999.0,90,-99.99,,,0.04,Acu-Link.com,2013-06-11 02:23:00,
2013-06-10 22:38:00,78.8,75.6,29.92,ESE,112,0.0,-999.0,90,-99.99,,,0.04,Acu-Link.com,2013-06-11 02:38:00,
2013-06-10 22:53:00,78.8,75.6,29.92,East,90,1.1,-999.0,90,-99.99,,,0.04,Acu-Link.com,2013-06-11 02:53:00,
2013-06-10 23:08:00,78.8,75.6,29.93,ENE,67,3.7,-999.0,90,-99.99,,,0.04,Acu-Link.com,2013-06-11 03:08:00,
2013-06-10 23:23:00,79.0,75.8,29.92,SE,135,6.3,-999.0,90,-99.99,,,0.04,Acu-Link.com,2013-06-11 03:23:00,
2013-06-10 23:39:00,78.8,75.6,29.91,ESE,112,2.7,-999.0,90,-99.99,,,0.04,Acu-Link.com,2013-06-11 03:39:00,
2013-06-10 23:54:00,78.8,75.9,29.91,SSE,157,3.2,-999.0,91,-99.99,,,0.04,Acu-Link.com,2013-06-11 03:54:00,